Location: Recife
(8.0585°S, 34.8848°W)
Time: 13:10:24
(UTC-03:00)

Vanguard 2 - All Passes

Search period start: 14 April 2026 00:00
Search period end: 24 April 2026 00:00
Orbit: 554 x 2895 km, 32.9° (Epoch: 14 April)

Date Brightness Start Highest point End Pass type
(mag) Time Alt. Az. Time Alt. Az. Time Alt. Az.
14 Apr - 01:25:35 10° SW 01:38:42 25° S 01:49:28 10° SE visible
14 Apr - 03:41:54 10° SW 03:53:37 28° SSE 04:01:45 10° ESE visible
14 Apr - 05:54:24 10° SW 06:05:19 62° SSE 06:11:43 10° ENE daylight
14 Apr - 08:07:24 10° W 08:13:24 26° NW 08:17:41 10° NNE daylight
14 Apr - 16:54:58 10° NNE 16:59:35 14° NE 17:05:08 10° ENE daylight
14 Apr - 18:58:10 10° NW 19:09:01 58° NE 19:25:10 10° ESE visible
14 Apr - 21:06:56 10° WNW 21:20:47 63° SSW 21:38:26 10° SE visible
14 Apr - 23:20:49 10° WSW 23:35:29 34° SSW 23:49:58 10° SE visible
15 Apr - 01:38:39 10° SW 01:51:41 25° S 02:02:12 10° SE visible
15 Apr - 03:53:48 10° SW 04:06:14 34° SSE 04:14:31 10° ESE visible
15 Apr - 06:06:15 10° SW 06:17:18 83° SSE 06:23:42 10° ENE daylight
15 Apr - 08:20:41 10° W 08:24:57 17° NW 08:28:19 10° N daylight
15 Apr - 17:04:54 10° N 17:11:20 20° NE 17:19:53 10° E daylight
15 Apr - 19:09:43 10° NW 19:20:42 72° NE 19:37:26 10° ESE visible
15 Apr - 21:19:18 10° W 21:33:02 53° SSW 21:50:14 10° SE visible
15 Apr - 23:34:02 10° WSW 23:48:18 31° SSW 00:02:08 10° SE visible
16 Apr - 01:51:23 10° SW 02:04:39 27° S 02:15:06 10° ESE visible
16 Apr - 04:05:37 10° SW 04:18:44 41° SSE 04:27:07 10° E visible
16 Apr - 06:18:15 10° WSW 06:29:08 73° NW 06:35:28 10° NE daylight
16 Apr - 17:15:31 10° NNW 17:22:56 28° NE 17:33:36 10° E visible
16 Apr - 19:21:26 10° NW 19:32:31 88° NE 19:49:31 10° ESE visible
16 Apr - 21:31:52 10° W 21:45:26 45° SSW 22:02:04 10° SE visible
16 Apr - 23:47:18 10° WSW 00:01:15 28° S 00:14:32 10° SE visible
17 Apr - 02:03:50 10° SW 02:17:33 29° S 02:28:03 10° ESE visible
17 Apr - 04:17:23 10° SW 04:31:04 51° SSE 04:39:32 10° E visible
17 Apr - 06:30:28 10° WSW 06:40:49 52° NW 06:47:02 10° NE daylight
17 Apr - 17:26:31 10° NNW 17:34:29 37° NE 17:46:42 10° ESE visible
17 Apr - 19:33:19 10° WNW 19:44:28 77° SSW 20:01:27 10° SE visible
17 Apr - 21:44:38 10° W 21:58:00 39° SSW 22:13:58 10° SE visible
18 Apr - 00:00:27 10° SW 00:14:17 27° S 00:27:10 10° SE visible
18 Apr - 02:16:02 10° SW 02:30:21 33° SSE 02:40:58 10° ESE visible
18 Apr - 04:29:10 10° SW 04:43:17 64° SSE 04:51:43 10° ENE visible
18 Apr - 06:42:59 10° WSW 06:52:22 37° NW 06:58:20 10° NNE daylight
18 Apr - 17:37:46 10° NNW 17:46:03 49° NE 17:59:22 10° ESE visible
18 Apr - 19:45:23 10° WNW 19:56:33 64° SSW 20:13:18 10° SE visible
18 Apr - 21:57:34 10° WSW 22:10:42 34° SSW 22:26:01 10° SE visible
19 Apr - 00:13:25 10° SW 00:27:20 28° S 00:40:01 10° SE visible
19 Apr - 02:28:03 10° SW 02:43:02 38° SSE 02:53:46 10° E visible
19 Apr - 04:41:02 10° SW 04:55:19 81° SSE 05:03:44 10° ENE visible
19 Apr - 06:55:53 10° W 07:03:52 26° NW 07:09:22 10° N daylight
19 Apr - 15:46:32 10° NNE 15:49:30 12° NE 15:52:57 10° ENE daylight
19 Apr - 17:49:13 10° NW 17:57:40 64° NE 18:11:45 10° ESE visible
19 Apr - 19:57:40 10° W 20:08:48 53° SSW 20:25:06 10° SE visible
19 Apr - 22:10:37 10° WSW 22:23:33 31° S 22:38:14 10° SE visible
20 Apr - 00:26:08 10° SW 00:40:22 29° S 00:53:01 10° ESE visible
20 Apr - 02:39:55 10° SW 02:55:33 44° SSE 03:06:24 10° E visible
20 Apr - 04:53:00 10° WSW 05:07:11 81° NW 05:15:32 10° NE visible
20 Apr - 07:09:26 10° W 07:15:24 18° NW 07:19:57 10° N daylight
20 Apr - 15:56:14 10° N 16:01:05 19° NE 16:07:35 10° E daylight
20 Apr - 18:00:51 10° NW 18:09:24 82° NE 18:23:52 10° ESE visible
20 Apr - 20:10:07 10° W 20:21:11 44° SSW 20:36:56 10° SE visible
20 Apr - 22:23:41 10° WSW 22:36:30 29° S 22:50:42 10° SE visible
21 Apr - 00:38:35 10° SW 00:53:18 31° S 01:06:05 10° ESE visible
21 Apr - 02:51:45 10° SW 03:07:56 53° SSE 03:18:51 10° E visible
21 Apr - 05:05:09 10° WSW 05:18:54 63° NW 05:27:09 10° NE daylight
21 Apr - 07:24:27 10° WNW 07:26:59 11° NW 07:29:15 10° NNW daylight
21 Apr - 16:06:53 10° NNW 16:12:36 27° NE 16:21:02 10° E daylight
21 Apr - 18:12:41 10° WNW 18:21:17 79° SSW 18:35:50 10° SE visible
21 Apr - 20:22:46 10° W 20:33:43 38° SSW 20:48:49 10° SE visible
21 Apr - 22:36:41 10° SW 22:49:32 28° S 23:03:25 10° SE visible
22 Apr - 00:50:47 10° SW 01:06:08 35° SSE 01:19:06 10° ESE visible
22 Apr - 03:03:33 10° SW 03:20:10 65° SSE 03:31:05 10° ENE visible
22 Apr - 05:17:33 10° WSW 05:30:31 47° NW 05:38:35 10° NNE daylight
22 Apr - 16:17:57 10° NNW 16:24:06 39° NE 16:33:53 10° ESE daylight
22 Apr - 18:24:41 10° WNW 18:33:20 63° SSW 18:47:41 10° SE visible
22 Apr - 20:35:35 10° WSW 20:46:24 33° SSW 21:00:50 10° SE visible
22 Apr - 22:49:31 10° SW 23:02:34 28° S 23:16:23 10° SE visible
23 Apr - 01:02:48 10° SW 01:18:49 39° SSE 01:32:00 10° E visible
23 Apr - 03:15:24 10° SW 03:32:14 78° SSE 03:43:09 10° ENE visible
23 Apr - 05:30:15 10° WSW 05:42:03 36° NW 05:49:47 10° NNE daylight
23 Apr - 16:29:17 10° NW 16:35:40 54° NE 16:46:20 10° ESE daylight
23 Apr - 18:36:54 10° W 18:45:32 50° SSW 18:59:27 10° SE visible
23 Apr - 20:48:30 10° WSW 20:59:12 29° S 21:13:02 10° SE visible
23 Apr - 23:02:08 10° SW 23:15:35 29° S 23:29:32 10° ESE visible
